QPF
0.00 0.00 0.00 0.00 0.00 0.00 0.00 0.00 0.00 0.00 0.01 0.00 0.00 0.00 0.00 0.00 0.00 0.09 0.01 0.00 0.00 0.00 0.00 0.00 0.00 0.00 0.00 0.00 0.00 0.00 0.00 0.00 0.01 0.01 0.00 0.00 0.00 0.00 0.00 0.00 0.00 0.00 0.00 0.00 0.00 0.00 0.00 0.00 0.00
0.00 0.00 0.00 0.00 0.00 0.00 0.00 0.00 0.00 0.00 0.00 0.00 0.00 0.00 0.00 0.00 0.00 0.00 0.00 0.00 0.00 0.00 0.00 0.00 0.00 0.00 0.00 0.00 0.00 0.00 0.00 0.01 0.00 0.00 0.00 0.00 0.00 0.00 0.00 0.00 0.00 0.00 0.00 0.00 0.00 0.00 0.00 0.00 0.00
0.00 0.00 0.00 0.00 0.00 0.00 0.00 0.00 0.00 0.00 0.00 0.00 0.01 0.00 0.00 0.00 0.00 0.00 0.00 0.00 0.00 0.00 0.00 0.00 0.00 0.00 0.00 0.00 0.00 0.00 0.01 0.00 0.00 0.00 0.00 0.00 0.00 0.00 0.00 0.00 0.00 0.00 0.00 0.00 0.00 0.00 0.00 0.00 0.00
0.00 0.00 0.00 0.00 0.00 0.00 0.00 0.00 0.00 0.00 0.00 0.00 0.01 0.02 0.00 0.00 0.00 0.00 0.00 0.00 0.00 0.00 0.00 0.00 0.00 0.00 0.00 0.00 0.01 0.01 0.00 0.00 0.00 0.00 0.00 0.00 0.00 0.00 0.00 0.00 0.00 0.00 0.00 0.00 0.00 0.00 0.00 0.00 0.00
0.00 0.00 0.00 0.00 0.00 0.00 0.00 0.00 0.00 0.00 0.00 0.01 0.00 0.01 0.00 0.00 0.00 0.00 0.00 0.00 0.00 0.00 0.00 0.00 0.00 0.00 0.00 0.00 0.02 0.00 0.00 0.00 0.00 0.00 0.00 0.00 0.00 0.00 0.00 0.00 0.00 0.00 0.00 0.00 0.00 0.00 0.00 0.00 0.00
0.00 0.00 0.00 0.00 0.00 0.00 0.00 0.00 0.00 0.00 0.01 0.00 0.01 0.02 0.00 0.00 0.00 0.00 0.00 0.00 0.00 0.00 0.00 0.00 0.00 0.00 0.00 0.01 0.01 0.00 0.00 0.00 0.00 0.00 0.00 0.00 0.00 0.00 0.00 0.00 0.00 0.00 0.00 0.00 0.00 0.00 0.00 0.00 0.00
0.00 0.00 0.00 0.00 0.00 0.00 0.00 0.00 0.00 0.00 0.01 0.02 0.03 0.13 0.04 0.00 0.00 0.00 0.00 0.00 0.00 0.00 0.00 0.00 0.00 0.00 0.00 0.01 0.00 0.00 0.00 0.00 0.00 0.00 0.00 0.00 0.00 0.00 0.00 0.00 0.00 0.00 0.00 0.00 0.00 0.00 0.00 0.00 0.00
0.00 0.00 0.00 0.00 0.00 0.00 0.00 0.00 0.00 0.00 0.01 0.01 0.01 0.04 0.04 0.00 0.00 0.00 0.00 0.00 0.00 0.00 0.00 0.00 0.00 0.00 0.00 0.00 0.00 0.00 0.00 0.00 0.00 0.00 0.00 0.00 0.00 0.00 0.00 0.00 0.00 0.00 0.00 0.00 0.00 0.00 0.00 0.00 0.00
0.00 0.00 0.00 0.00 0.00 0.00 0.00 0.00 0.00 0.00 0.00 0.01 0.00 0.00 0.00 0.00 0.00 0.00 0.00 0.00 0.00 0.00 0.00 0.00 0.00 0.00 0.00 0.00 0.00 0.00 0.00 0.00 0.00 0.00 0.00 0.00 0.00 0.00 0.00 0.00 0.00 0.00 0.00 0.00 0.00 0.00 0.00 0.00 0.00
0.00 0.00 0.00 0.00 0.00 0.00 0.00 0.00 0.00 0.00 0.00 0.00 0.00 0.00 0.00 0.00 0.00 0.00 0.00 0.00 0.00 0.00 0.00 0.00 0.00 0.00 0.00 0.00 0.00 0.00 0.00 0.00 0.00 0.00 0.00 0.00 0.00 0.00 0.00 0.00 0.00 0.00 0.00 0.00 0.00 0.00 0.00 0.00 0.00
0.00 0.00 0.00 0.00 0.00 0.00 0.00 0.00 0.00 0.00 0.00 0.00 0.02 0.00 0.00 0.00 0.00 0.00 0.00 0.00 0.00 0.00 0.00 0.00 0.00 0.00 0.00 0.00 0.00 0.00 0.00 0.00 0.00 0.00 0.00 0.00 0.00 0.00 0.00 0.00 0.00 0.00 0.00 0.00 0.00 0.00 0.00 0.00 0.00
0.00 0.00 0.00 0.00 0.00 0.00 0.00 0.00 0.00 0.00 0.00 0.00 0.01 0.00 0.00 0.00 0.00 0.00 0.00 0.00 0.00 0.00 0.00 0.00 0.00 0.00 0.00 0.00 0.00 0.00 0.00 0.00 0.00 0.00 0.00 0.00 0.00 0.00 0.00 0.00 0.00 0.00 0.00 0.00 0.00 0.00 0.00 0.00 0.00
0.00 0.00 0.00 0.00 0.00 0.00 0.00 0.00 0.00 0.00 0.00 0.00 0.00 0.00 0.00 0.00 0.00 0.00 0.00 0.00 0.00 0.00 0.00 0.00 0.00 0.00 0.00 0.00 0.00 0.00 0.00 0.00 0.00 0.00 0.00 0.00 0.00 0.00 0.00 0.00 0.00 0.00 0.00 0.00 0.00 0.00 0.00 0.00 0.00
0.00 0.00 0.00 0.00 0.00 0.00 0.00 0.00 0.00 0.00 0.00 0.00 0.00 0.00 0.00 0.00 0.00 0.00 0.00 0.00 0.00 0.00 0.00 0.00 0.00 0.00 0.00 0.00 0.00 0.00 0.00 0.00 0.00 0.00 0.00 0.00 0.00 0.00 0.00 0.00 0.00 0.00 0.00 0.00 0.00 0.00 0.00 0.00 0.00
0.00 0.00 0.00 0.00 0.00 0.00 0.00 0.00 0.00 0.00 0.00 0.00 0.00 0.00 0.00 0.00 0.00 0.00 0.00 0.00 0.00 0.00 0.00 0.00 0.00 0.00 0.00 0.00 0.00 0.00 0.00 0.00 0.00 0.00 0.00 0.00 0.00 0.00 0.00 0.00 0.00 0.00 0.00 0.00 0.00 0.00 0.00 0.00 0.00
0.00 0.00 0.00 0.00 0.00 0.00 0.00 0.00 0.00 0.00 0.00 0.00 0.00 0.00 0.00 0.00 0.00 0.00 0.00 0.00 0.00 0.00 0.00 0.00 0.00 0.00 0.00 0.00 0.00 0.00 0.00 0.00 0.00 0.00 0.00 0.00 0.00 0.00 0.00 0.00 0.00 0.00 0.00 0.00 0.00 0.00 0.00 0.00 0.00
0.00 0.00 0.00 0.00 0.00 0.00 0.00 0.00 0.00 0.00 0.00 0.00 0.00 0.00 0.00 0.00 0.00 0.00 0.00 0.00 0.00 0.00 0.00 0.00 0.00 0.00 0.00 0.00 0.00 0.00 0.00 0.00 0.00 0.00 0.00 0.00 0.00 0.00 0.00 0.00 0.00 0.00 0.00 0.00 0.00 0.00 0.00 0.00 0.00
0.00 0.00 0.00 0.00 0.00 0.00 0.00 0.00 0.00 0.00 0.00 0.00 0.00 0.00 0.00 0.00 0.00 0.00 0.00 0.00 0.00 0.00 0.00 0.00 0.00 0.00 0.00 0.00 0.00 0.00 0.00 0.00 0.00 0.00 0.00 0.00 0.00 0.00 0.00 0.00 0.00 0.00 0.00 0.00 0.00 0.00 0.00 0.00 0.00
0.00 0.00 0.00 0.00 0.00 0.00 0.00 0.00 0.00 0.00 0.00 0.00 0.00 0.00 0.00 0.00 0.00 0.00 0.00 0.00 0.00 0.00 0.00 0.00 0.00 0.00 0.00 0.00 0.00 0.03 0.06 0.01 0.00 0.00 0.00 0.00 0.00 0.00 0.00 0.00 0.00 0.00 0.00 0.00 0.00 0.00 0.00 0.00 0.00
0.00 0.00 0.00 0.00 0.00 0.00 0.00 0.00 0.00 0.00 0.00 0.00 0.00 0.00 0.00 0.00 0.00 0.00 0.00 0.00 0.00 0.00 0.00 0.01 0.01 0.00 0.00 0.00 0.00 0.02 0.06 0.04 0.00 0.00 0.00 0.00 0.00 0.00 0.00 0.00 0.00 0.00 0.00 0.00 0.00 0.00 0.00 0.00 0.00
0.00 0.00 0.00 0.00 0.00 0.00 0.00 0.00 0.01 0.00 0.04 0.08 0.01 0.00 0.00 0.00 0.00 0.00 0.00 0.00 0.00 0.00 0.01 0.12 0.07 0.01 0.01 0.00 0.03 0.03 0.05 0.03 0.00 0.00 0.00 0.00 0.00 0.00 0.00 0.00 0.00 0.00 0.00 0.00 0.00 0.00 0.00 0.00 0.00
0.00 0.00 0.00 0.00 0.00 0.00 0.00 0.00 0.00 0.00 0.00 0.07 0.03 0.00 0.00 0.00 0.00 0.00 0.00 0.00 0.00 0.09 0.16 0.14 0.09 0.07 0.01 0.00 0.01 0.05 0.03 0.01 0.00 0.00 0.00 0.00 0.00 0.00 0.00 0.00 0.00 0.00 0.00 0.00 0.00 0.00 0.00 0.00 0.00
0.00 0.00 0.00 0.00 0.00 0.00 0.00 0.00 0.00 0.00 0.00 0.01 0.00 0.00 0.00 0.00 0.00 0.00 0.00 0.00 0.00 0.00 0.05 0.03 0.00 0.00 0.00 0.00 0.00 0.00 0.00 0.00 0.00 0.00 0.00 0.00 0.00 0.00 0.00 0.00 0.00 0.00 0.00 0.00 0.00 0.00 0.00 0.00 0.00
0.00 0.00 0.00 0.00 0.00 0.00 0.00 0.00 0.00 0.00 0.00 0.00 0.00 0.00 0.00 0.00 0.00 0.00 0.00 0.00 0.00 0.00 0.00 0.00 0.00 0.02 0.01 0.00 0.00 0.00 0.00 0.00 0.00 0.00 0.00 0.00 0.00 0.00 0.00 0.00 0.00 0.00 0.00 0.00 0.00 0.00 0.00 0.00 0.00
0.00 0.00 0.00 0.00 0.00 0.00 0.00 0.00 0.00 0.00 0.00 0.00 0.00 0.00 0.00 0.00 0.00 0.00 0.00 0.00 0.00 0.00 0.00 0.00 0.00 0.01 0.01 0.00 0.00 0.00 0.00 0.00 0.00 0.00 0.00 0.00 0.00 0.00 0.00 0.00 0.00 0.00 0.00 0.00 0.00 0.00 0.00 0.00 0.00
0.00 0.00 0.00 0.00 0.00 0.00 0.00 0.00 0.00 0.00 0.00 0.00 0.00 0.00 0.00 0.00 0.00 0.00 0.00 0.00 0.00 0.00 0.00 0.00 0.00 0.00 0.01 0.00 0.00 0.00 0.00 0.00 0.00 0.00 0.00 0.00 0.00 0.00 0.00 0.00 0.00 0.00 0.00 0.00 0.00 0.00 0.00 0.00 0.00
0.00 0.00 0.00 0.00 0.00 0.00 0.00 0.00 0.00 0.00 0.00 0.00 0.00 0.00 0.00 0.00 0.00 0.00 0.00 0.00 0.00 0.00 0.00 0.00 0.00 0.00 0.00 0.01 0.01 0.00 0.00 0.00 0.01 0.01 0.00 0.00 0.00 0.00 0.00 0.00 0.00 0.00 0.00 0.00 0.00 0.00 0.00 0.00 0.00
0.00 0.00 0.00 0.00 0.00 0.00 0.00 0.00 0.00 0.00 0.00 0.00 0.00 0.00 0.00 0.00 0.00 0.00 0.00 0.00 0.00 0.00 0.00 0.00 0.00 0.00 0.00 0.00 0.01 0.01 0.00 0.00 0.00 0.01 0.00 0.00 0.00 0.00 0.00 0.00 0.00 0.00 0.00 0.00 0.00 0.00 0.00 0.00 0.00
0.00 0.00 0.00 0.00 0.00 0.00 0.00 0.00 0.00 0.00 0.00 0.00 0.00 0.00 0.00 0.00 0.00 0.00 0.00 0.00 0.00 0.00 0.00 0.00 0.00 0.00 0.00 0.00 0.00 0.01 0.01 0.00 0.00 0.00 0.00 0.00 0.00 0.00 0.00 0.00 0.00 0.00 0.00 0.00 0.00 0.00 0.00 0.00 0.00
0.00 0.00 0.00 0.00 0.00 0.00 0.00 0.00 0.00 0.00 0.00 0.00 0.00 0.00 0.00 0.00 0.00 0.00 0.00 0.00 0.00 0.00 0.00 0.00 0.00 0.00 0.00 0.00 0.00 0.00 0.00 0.00 0.00 0.00 0.00 0.00 0.00 0.00 0.00 0.00 0.00 0.00 0.00 0.00 0.00 0.00 0.00 0.00 0.00
MSLP
1008.12 1007.82 1007.22 1006.28 1005.73 1006.34 1005.34 1002.17 1001.09 1001.18 1001.62 1002.19 1002.45 1002.38 1003.70 1004.94 1005.78 1008.32 1008.77 1009.79 1010.89 1012.00 1012.99 1013.65 1014.19 1014.43 1014.73 1015.05 1015.30 1015.51 1015.77 1015.85 1015.89 1016.02 1016.19 1016.28 1016.35 1016.27 1016.30 1016.26 1016.36 1016.21 1016.22 1016.00 1015.89 1015.78 1015.70 1015.61 1015.51
1007.31 1006.32 1005.45 1004.65 1003.99 1005.04 1004.95 1001.69 1000.78 1001.38 1001.66 1002.19 1002.58 1002.71 1003.68 1005.26 1006.31 1007.38 1008.21 1009.58 1010.81 1011.95 1012.59 1013.69 1014.26 1014.49 1014.90 1015.21 1015.45 1015.69 1015.91 1016.07 1016.23 1016.49 1016.53 1016.67 1016.62 1016.63 1016.61 1016.58 1016.46 1016.35 1016.37 1016.28 1016.15 1015.98 1015.86 1015.69 1015.52
1007.98 1006.50 1005.06 1003.17 1002.28 1003.12 1002.23 1000.66 1000.71 1001.24 1001.95 1001.96 1002.73 1003.31 1004.35 1005.69 1006.16 1006.94 1008.10 1009.27 1010.26 1011.48 1012.62 1013.87 1014.35 1014.64 1015.12 1015.47 1015.69 1015.92 1016.14 1016.37 1016.54 1016.67 1016.81 1016.88 1016.91 1016.95 1016.98 1016.87 1016.64 1016.60 1016.67 1016.53 1016.29 1016.32 1016.00 1015.84 1015.69
1006.68 1005.19 1004.46 1002.53 1000.56 1000.27 1000.20 1000.44 1000.78 1001.12 1002.16 1002.52 1003.83 1005.31 1006.12 1006.00 1006.32 1007.27 1007.88 1008.99 1010.18 1011.31 1012.78 1014.10 1014.45 1014.88 1015.32 1015.58 1015.90 1016.17 1016.47 1016.64 1016.73 1016.95 1017.01 1017.03 1017.13 1017.25 1017.30 1017.13 1017.04 1016.97 1016.91 1016.78 1016.60 1016.55 1016.37 1016.14 1015.92
1006.06 1004.65 1002.82 1001.22 999.46 999.14 999.67 1000.59 1000.98 1001.60 1002.83 1003.00 1004.46 1006.31 1007.02 1007.25 1007.50 1007.66 1007.73 1008.70 1009.79 1011.31 1012.92 1013.99 1014.65 1015.07 1015.40 1015.68 1016.05 1016.24 1016.61 1016.91 1017.01 1017.15 1017.31 1017.37 1017.37 1017.48 1017.55 1017.35 1017.41 1017.34 1017.16 1016.99 1016.90 1016.71 1016.61 1016.38 1016.07
1005.03 1003.94 1002.16 1000.12 999.20 999.26 999.47 1000.09 1000.80 1001.93 1004.44 1004.05 1005.19 1007.29 1007.54 1007.92 1008.43 1007.99 1008.04 1008.34 1009.37 1011.27 1012.64 1013.98 1014.78 1015.19 1015.51 1015.80 1016.19 1016.43 1016.68 1017.03 1017.19 1017.28 1017.45 1017.61 1017.62 1017.68 1017.74 1017.73 1017.75 1017.69 1017.42 1017.39 1017.20 1016.90 1016.70 1016.49 1015.99
1004.55 1002.98 1001.35 999.86 998.86 998.79 999.66 1000.21 1000.50 1002.98 1004.97 1007.90 1006.72 1009.18 1010.84 1008.42 1008.39 1008.25 1007.59 1008.20 1009.02 1010.69 1012.58 1013.86 1014.65 1015.17 1015.53 1015.91 1016.17 1016.66 1016.85 1017.07 1017.33 1017.48 1017.60 1017.70 1017.64 1017.72 1017.80 1018.00 1018.07 1018.07 1017.80 1017.56 1017.44 1017.15 1016.83 1016.57 1016.14
1003.94 1002.97 1001.54 999.80 998.62 999.45 1000.14 1000.54 1000.83 1002.83 1005.82 1006.95 1007.29 1009.04 1009.23 1007.78 1008.01 1008.13 1007.39 1008.03 1008.84 1010.12 1011.67 1012.91 1014.24 1014.77 1015.13 1015.83 1016.31 1016.72 1016.98 1017.34 1017.57 1017.63 1017.65 1017.66 1017.60 1017.62 1017.90 1018.13 1018.25 1018.21 1017.91 1017.63 1017.55 1017.32 1017.07 1016.69 1016.30
1003.67 1003.03 1000.78 999.29 998.68 999.17 999.71 1000.64 1001.13 1001.73 1004.80 1005.04 1004.01 1006.13 1006.84 1007.48 1007.73 1007.32 1007.39 1007.85 1008.63 1009.43 1010.62 1011.74 1012.96 1013.88 1014.08 1015.28 1016.29 1016.82 1017.15 1017.37 1017.59 1017.63 1017.58 1017.77 1017.63 1017.70 1017.88 1018.07 1018.17 1018.10 1017.93 1017.62 1017.42 1017.25 1017.15 1017.02 1016.51
1003.36 1001.93 999.94 999.17 998.95 999.31 999.64 1000.29 1000.53 1001.46 1002.07 1002.93 1003.72 1004.56 1005.90 1006.44 1006.83 1006.93 1007.27 1007.75 1008.38 1009.06 1009.85 1011.08 1012.21 1012.69 1013.23 1014.37 1015.87 1016.19 1016.67 1016.85 1017.01 1017.10 1017.07 1017.45 1017.32 1017.34 1017.41 1017.88 1017.91 1017.95 1017.87 1017.71 1017.55 1017.07 1016.88 1016.88 1016.71
1002.63 1001.77 1000.37 999.95 1000.18 1000.24 1000.18 1000.18 1000.45 1000.90 1001.71 1003.58 1005.34 1005.13 1005.73 1005.58 1006.44 1006.74 1007.15 1007.60 1008.31 1009.14 1009.66 1010.69 1011.64 1012.05 1012.63 1014.01 1014.83 1015.05 1015.57 1015.97 1016.35 1016.52 1016.71 1016.88 1017.07 1017.21 1017.54 1017.82 1017.74 1017.80 1017.82 1017.59 1017.49 1017.25 1017.03 1016.67 1016.50
1002.36 1001.55 1001.19 1000.94 1000.70 1001.07 1000.97 1000.25 1000.46 1000.68 1000.97 1002.08 1004.66 1004.11 1005.14 1005.27 1006.13 1006.69 1007.04 1007.47 1008.41 1009.33 1010.01 1010.72 1011.65 1012.19 1012.69 1013.24 1013.68 1014.01 1014.80 1015.25 1015.75 1016.38 1016.65 1016.84 1017.09 1017.13 1017.14 1017.30 1017.24 1017.10 1017.21 1017.21 1017.22 1017.60 1017.52 1017.34 1017.14
1002.21 1001.80 1001.42 1001.43 1001.13 1001.33 1001.12 1000.87 1000.68 1000.47 1000.64 1001.55 1002.90 1003.36 1004.09 1004.80 1005.83 1006.53 1007.16 1007.77 1008.68 1009.46 1010.33 1011.15 1011.85 1012.30 1012.57 1013.00 1013.13 1013.56 1014.26 1014.62 1015.23 1015.71 1016.23 1016.47 1016.65 1017.04 1017.36 1017.51 1017.36 1017.26 1017.21 1017.29 1017.34 1017.74 1017.64 1017.59 1017.79
1002.00 1001.85 1001.59 1001.43 1001.36 1001.48 1001.32 1001.20 1000.83 1000.52 1000.72 1001.33 1001.91 1002.51 1002.40 1002.81 1004.73 1006.09 1006.99 1007.83 1008.66 1009.56 1010.45 1011.18 1011.83 1012.37 1012.60 1013.13 1013.48 1013.94 1014.37 1014.84 1015.11 1015.70 1016.14 1016.43 1016.62 1016.86 1016.94 1017.14 1017.15 1017.25 1017.47 1017.67 1017.68 1017.71 1017.70 1017.61 1017.85
1002.45 1002.19 1001.57 1001.35 1001.30 1001.25 1001.22 1001.20 1000.71 1000.55 1000.81 1001.14 1001.44 1001.68 1001.20 1002.40 1003.08 1005.60 1006.79 1007.67 1008.62 1009.51 1010.34 1011.11 1011.75 1012.47 1012.92 1013.47 1013.94 1014.51 1015.19 1015.67 1016.27 1016.65 1016.69 1016.61 1016.83 1017.06 1016.90 1016.94 1017.18 1017.38 1017.80 1018.08 1018.02 1017.94 1017.74 1017.75 1017.80
1002.23 1001.67 1000.66 1000.94 1001.25 1001.20 1001.89 1001.01 1000.07 1000.34 1000.76 1001.08 1001.11 1001.85 1002.09 1002.49 1003.67 1005.33 1006.48 1007.50 1008.43 1009.33 1010.55 1011.40 1011.93 1012.94 1013.62 1013.83 1014.38 1014.81 1015.43 1015.94 1016.56 1016.72 1016.95 1016.80 1016.92 1017.15 1017.16 1016.82 1017.21 1017.84 1018.09 1018.02 1017.82 1018.09 1017.95 1017.83 1018.01
1001.05 1000.13 1000.08 1000.50 1001.02 1001.06 1001.48 1000.67 1000.83 1001.33 1001.44 1001.41 1001.75 1002.90 1003.32 1003.29 1004.30 1005.43 1006.41 1007.39 1008.45 1009.41 1010.60 1011.75 1012.36 1013.15 1014.04 1014.44 1014.65 1015.49 1016.08 1016.62 1016.92 1016.96 1016.81 1016.74 1017.07 1017.37 1017.27 1017.02 1017.37 1017.92 1018.23 1017.97 1017.82 1017.93 1018.04 1018.14 1018.16
999.70 999.26 999.72 1000.23 1001.01 1001.05 1000.97 1001.20 1001.53 1001.89 1002.24 1001.99 1002.15 1002.86 1003.39 1003.93 1004.80 1005.66 1006.53 1007.54 1008.55 1009.61 1010.75 1011.75 1012.58 1013.31 1014.19 1014.95 1015.63 1016.18 1016.69 1017.00 1017.02 1017.15 1016.85 1017.02 1017.29 1017.57 1017.80 1017.38 1017.62 1018.02 1018.29 1018.04 1018.07 1018.34 1018.44 1018.40 1018.40
1000.23 1000.08 999.95 1000.58 1001.38 1001.83 1002.44 1002.11 1002.90 1003.36 1003.35 1003.37 1003.31 1003.17 1003.43 1004.20 1005.26 1006.11 1006.82 1007.71 1008.79 1009.85 1010.89 1011.93 1012.66 1013.58 1014.60 1015.52 1016.12 1017.02 1017.29 1017.12 1017.16 1017.18 1017.24 1017.21 1017.50 1017.76 1018.34 1017.37 1017.76 1017.99 1018.28 1018.38 1018.49 1018.58 1018.88 1018.93 1018.52
1000.82 1000.56 1000.37 1001.11 1001.80 1002.45 1003.49 1003.54 1004.33 1005.06 1005.84 1005.46 1005.07 1004.82 1004.48 1004.24 1005.70 1006.73 1007.25 1007.83 1008.75 1009.89 1010.91 1012.07 1013.01 1014.20 1014.85 1015.49 1016.13 1016.60 1017.05 1017.36 1017.15 1017.43 1017.90 1018.01 1018.07 1018.45 1018.54 1017.81 1018.09 1018.19 1018.55 1018.57 1018.81 1018.88 1019.14 1019.00 1018.72
1000.92 1000.63 1000.68 1001.34 1001.74 1002.47 1003.18 1005.86 1007.76 1008.21 1008.42 1009.87 1007.11 1006.53 1006.06 1005.70 1006.35 1007.36 1007.89 1008.27 1008.63 1009.68 1010.98 1011.98 1013.29 1014.24 1014.93 1015.55 1016.43 1017.05 1017.48 1017.88 1017.75 1017.83 1018.24 1018.36 1018.48 1018.85 1018.58 1017.84 1018.11 1018.32 1018.52 1018.86 1018.82 1019.00 1019.22 1019.16 1019.02
1000.65 1001.17 1001.63 1001.74 1002.00 1001.90 1002.93 1006.33 1009.55 1010.83 1012.35 1011.76 1010.08 1007.55 1007.12 1006.95 1007.07 1007.81 1009.31 1009.47 1010.19 1011.14 1011.49 1012.74 1013.59 1014.37 1015.11 1015.42 1016.16 1016.96 1017.10 1017.20 1017.59 1018.03 1018.47 1018.68 1018.70 1018.87 1018.74 1017.82 1018.26 1018.48 1018.59 1018.73 1018.90 1018.90 1019.09 1019.22 1019.28
1001.73 1001.87 1001.88 1001.84 1002.02 1002.38 1002.43 1004.66 1009.15 1010.65 1010.44 1008.15 1007.33 1007.41 1007.80 1007.99 1008.19 1008.76 1009.56 1010.30 1011.08 1011.86 1012.66 1013.16 1013.91 1014.45 1014.81 1015.37 1015.65 1016.23 1016.48 1016.25 1017.28 1018.00 1018.36 1018.64 1018.85 1018.97 1018.57 1017.87 1018.25 1018.33 1018.73 1018.95 1018.98 1019.14 1019.26 1019.48 1019.42
1002.36 1002.28 1002.06 1001.88 1001.71 1001.86 1002.49 1003.84 1007.20 1008.08 1007.53 1006.48 1006.48 1006.93 1007.72 1008.45 1009.20 1009.82 1010.34 1010.61 1011.01 1011.80 1012.38 1012.95 1013.48 1014.04 1014.65 1015.10 1015.41 1015.71 1015.94 1016.34 1017.08 1017.79 1018.05 1018.15 1018.35 1018.62 1018.67 1018.07 1018.21 1018.41 1018.70 1018.90 1019.08 1019.17 1019.23 1019.38 1019.52
1002.32 1002.41 1001.74 1001.89 1001.84 1001.91 1002.20 1002.96 1004.77 1005.75 1005.78 1005.26 1005.74 1006.67 1007.63 1008.24 1008.97 1009.78 1010.37 1010.67 1011.23 1011.89 1012.35 1012.86 1013.40 1013.86 1014.41 1014.79 1015.15 1015.57 1015.76 1015.98 1016.53 1017.09 1017.66 1017.81 1017.85 1018.04 1018.08 1017.85 1018.11 1018.40 1018.58 1018.76 1018.86 1019.25 1019.44 1019.40 1019.64
1001.89 1002.29 1002.11 1001.85 1002.05 1002.27 1002.15 1002.19 1003.94 1004.39 1004.63 1004.80 1005.38 1006.40 1007.43 1008.11 1008.77 1009.40 1009.95 1010.35 1010.88 1011.44 1012.00 1012.43 1012.88 1013.25 1013.76 1014.35 1014.77 1015.23 1015.62 1015.92 1016.27 1016.75 1016.91 1017.03 1017.05 1017.22 1017.40 1017.81 1017.94 1018.20 1018.43 1018.49 1018.75 1019.09 1019.18 1019.39 1019.55
1002.58 1002.66 1002.53 1002.73 1002.22 1001.99 1001.64 1002.51 1002.81 1003.25 1003.74 1004.26 1004.83 1005.65 1006.48 1007.23 1007.90 1008.50 1008.85 1009.15 1009.96 1010.49 1011.17 1011.61 1012.04 1012.69 1013.23 1013.86 1014.22 1014.71 1015.11 1015.39 1015.70 1016.07 1016.37 1016.48 1016.70 1016.79 1016.95 1017.37 1017.76 1017.91 1018.07 1018.38 1018.73 1019.08 1019.21 1019.46 1019.36
1003.36 1003.45 1003.23 1002.99 1002.80 1002.62 1003.05 1002.72 1002.36 1002.96 1003.09 1003.54 1004.00 1004.48 1005.41 1006.18 1006.95 1008.07 1008.84 1009.24 1009.59 1009.81 1009.97 1010.82 1011.64 1012.18 1012.56 1012.98 1013.70 1014.33 1014.58 1014.94 1015.39 1015.70 1015.99 1016.21 1016.40 1016.66 1016.90 1016.99 1017.44 1017.70 1017.89 1018.23 1018.77 1019.01 1019.25 1019.51 1019.72
1003.26 1003.37 1003.73 1004.04 1004.32 1003.74 1003.11 1002.51 1002.57 1002.53 1002.76 1002.96 1003.18 1003.29 1004.60 1005.46 1006.45 1007.57 1008.52 1009.22 1009.30 1009.22 1009.15 1010.14 1010.98 1011.76 1012.25 1012.76 1013.43 1013.82 1014.28 1014.64 1015.20 1015.68 1016.12 1016.29 1016.44 1016.66 1016.71 1016.86 1017.21 1017.47 1017.73 1018.15 1018.65 1018.91 1019.21 1019.74 1019.70
1003.71 1003.98 1004.29 1004.41 1004.46 1004.37 1003.97 1003.15 1002.49 1002.62 1002.71 1003.07 1003.43 1003.65 1003.99 1005.16 1006.25 1006.91 1007.19 1007.89 1008.39 1008.74 1009.11 1009.82 1010.49 1010.90 1011.49 1012.37 1013.07 1013.42 1014.06 1014.59 1015.16 1015.59 1015.91 1016.15 1016.23 1016.40 1016.66 1016.75 1016.90 1017.13 1017.39 1017.80 1018.19 1018.74 1018.79 1019.05 1019.40
Thickness
5829 5833 5839 5832 5797 5750 5744 5818 5844 5825 5823 5838 5839 5831 5813 5808 5790 5751 5800 5800 5792 5783 5774 5770 5767 5766 5763 5760 5757 5755 5753 5751 5751 5750 5747 5746 5745 5746 5745 5745 5742 5744 5742 5744 5745 5746 5745 5746 5747
5834 5843 5845 5829 5794 5756 5749 5831 5827 5831 5838 5844 5839 5833 5815 5795 5810 5800 5797 5800 5792 5782 5777 5769 5765 5763 5759 5756 5754 5752 5749 5747 5746 5744 5743 5741 5741 5740 5739 5739 5740 5740 5739 5741 5741 5742 5743 5744 5745
5829 5841 5821 5820 5812 5779 5789 5839 5835 5841 5844 5842 5826 5835 5818 5798 5815 5811 5813 5805 5798 5786 5776 5767 5763 5760 5755 5752 5750 5747 5745 5743 5742 5739 5738 5737 5736 5735 5734 5734 5737 5736 5735 5736 5738 5737 5741 5741 5742
5828 5835 5830 5810 5822 5839 5834 5842 5846 5840 5841 5845 5824 5793 5812 5825 5817 5817 5818 5810 5798 5787 5775 5764 5761 5757 5752 5750 5747 5744 5741 5739 5739 5736 5735 5734 5733 5730 5729 5731 5731 5731 5731 5731 5733 5733 5735 5737 5739
5831 5826 5810 5817 5840 5853 5853 5848 5848 5835 5828 5838 5821 5793 5790 5811 5819 5818 5817 5810 5800 5787 5773 5764 5759 5754 5751 5748 5743 5743 5739 5736 5735 5734 5731 5730 5728 5726 5724 5726 5725 5725 5726 5728 5728 5731 5731 5733 5736
5809 5823 5798 5813 5842 5849 5858 5855 5850 5838 5803 5816 5820 5774 5790 5812 5806 5812 5814 5810 5804 5785 5774 5763 5756 5752 5748 5745 5742 5740 5738 5734 5732 5731 5728 5725 5724 5723 5721 5721 5719 5719 5721 5722 5724 5727 5729 5730 5735
5804 5810 5806 5831 5846 5845 5843 5860 5849 5819 5798 5776 5779 5756 5750 5795 5809 5812 5815 5809 5802 5788 5773 5762 5755 5750 5747 5743 5741 5737 5735 5732 5729 5727 5725 5722 5722 5720 5718 5716 5713 5713 5716 5718 5720 5723 5725 5727 5732
5820 5816 5807 5832 5843 5824 5845 5849 5853 5825 5791 5802 5793 5757 5762 5799 5813 5810 5813 5806 5799 5792 5779 5768 5756 5752 5749 5742 5738 5734 5731 5727 5725 5723 5722 5721 5720 5719 5716 5712 5710 5709 5713 5715 5716 5718 5720 5724 5727
5836 5798 5805 5836 5845 5838 5855 5835 5844 5852 5806 5812 5830 5806 5802 5807 5811 5809 5806 5802 5796 5792 5788 5776 5766 5758 5755 5744 5737 5732 5729 5726 5723 5721 5720 5718 5718 5716 5711 5709 5707 5707 5708 5712 5714 5715 5717 5718 5722
5814 5804 5830 5861 5862 5847 5850 5843 5844 5837 5838 5832 5821 5822 5817 5816 5811 5804 5799 5794 5792 5788 5786 5782 5772 5767 5762 5752 5739 5735 5730 5728 5726 5723 5723 5719 5717 5716 5713 5708 5705 5704 5705 5707 5709 5714 5715 5715 5716
5821 5805 5839 5848 5851 5849 5841 5842 5850 5838 5828 5816 5773 5796 5809 5812 5808 5804 5801 5798 5792 5790 5787 5781 5775 5771 5767 5753 5746 5743 5737 5733 5729 5726 5723 5721 5717 5714 5710 5706 5703 5703 5702 5705 5706 5707 5710 5713 5714
5808 5830 5834 5838 5844 5835 5828 5847 5837 5842 5840 5836 5799 5818 5812 5810 5806 5803 5800 5799 5793 5788 5784 5783 5776 5770 5764 5759 5755 5751 5744 5739 5733 5726 5722 5718 5715 5711 5710 5707 5706 5705 5704 5704 5704 5701 5702 5703 5705
5812 5823 5833 5836 5837 5833 5837 5829 5831 5839 5854 5851 5829 5821 5817 5814 5809 5808 5804 5800 5794 5785 5782 5779 5775 5769 5766 5762 5759 5755 5748 5743 5737 5732 5725 5721 5718 5713 5708 5703 5703 5702 5701 5701 5700 5698 5698 5699 5697
5824 5823 5825 5831 5829 5829 5820 5823 5833 5842 5851 5842 5840 5823 5832 5821 5812 5808 5802 5795 5791 5787 5781 5780 5774 5769 5765 5760 5756 5750 5745 5740 5736 5730 5724 5717 5714 5711 5710 5707 5703 5700 5698 5696 5696 5695 5695 5695 5693
5819 5801 5817 5821 5825 5821 5829 5808 5818 5844 5845 5838 5834 5835 5816 5818 5818 5806 5803 5797 5793 5788 5784 5778 5774 5769 5763 5756 5750 5743 5736 5730 5723 5721 5716 5713 5709 5706 5705 5704 5702 5698 5693 5689 5690 5690 5691 5690 5689
5804 5807 5795 5818 5822 5824 5814 5786 5833 5849 5838 5832 5835 5808 5825 5821 5816 5812 5807 5800 5796 5790 5779 5775 5773 5763 5754 5751 5743 5738 5733 5727 5720 5715 5709 5705 5701 5698 5698 5701 5697 5691 5687 5687 5688 5686 5686 5687 5684
5811 5796 5809 5809 5827 5822 5812 5806 5827 5835 5829 5827 5825 5814 5816 5815 5813 5811 5806 5801 5794 5788 5778 5769 5766 5758 5746 5744 5739 5733 5725 5719 5713 5707 5706 5700 5693 5688 5688 5692 5691 5685 5682 5683 5684 5683 5682 5679 5678
5810 5820 5819 5809 5815 5821 5817 5810 5819 5824 5821 5823 5822 5817 5813 5809 5805 5807 5804 5800 5794 5785 5776 5768 5761 5755 5744 5736 5729 5723 5717 5711 5707 5702 5701 5695 5686 5678 5675 5681 5681 5678 5677 5678 5678 5675 5675 5674 5672
5817 5814 5812 5814 5818 5805 5788 5805 5803 5810 5812 5809 5810 5812 5810 5805 5806 5804 5801 5797 5789 5781 5771 5762 5756 5749 5737 5727 5720 5711 5706 5708 5706 5699 5695 5690 5679 5668 5663 5672 5670 5671 5672 5670 5670 5669 5665 5665 5668
5810 5805 5807 5809 5812 5802 5783 5792 5794 5795 5787 5794 5794 5796 5801 5805 5797 5793 5793 5791 5785 5776 5769 5758 5749 5740 5733 5726 5719 5712 5707 5702 5700 5694 5686 5683 5673 5660 5658 5663 5663 5662 5665 5666 5664 5663 5659 5660 5661
5805 5803 5803 5795 5805 5807 5799 5755 5740 5752 5759 5735 5779 5786 5791 5792 5786 5784 5784 5785 5782 5774 5762 5754 5743 5736 5729 5722 5713 5704 5699 5693 5691 5687 5682 5677 5670 5658 5652 5659 5659 5656 5660 5658 5660 5659 5656 5653 5654
5800 5812 5803 5795 5786 5772 5805 5739 5713 5707 5696 5692 5724 5770 5777 5781 5783 5779 5766 5768 5763 5755 5751 5744 5738 5730 5724 5720 5711 5702 5698 5693 5689 5683 5678 5672 5667 5660 5651 5662 5658 5654 5654 5656 5656 5656 5652 5650 5644
5789 5809 5801 5798 5786 5784 5796 5768 5721 5720 5708 5751 5767 5768 5768 5770 5771 5766 5762 5759 5756 5750 5742 5739 5732 5726 5723 5717 5713 5703 5698 5701 5690 5680 5675 5669 5663 5659 5658 5661 5657 5654 5653 5652 5652 5649 5647 5642 5639
5806 5796 5798 5799 5793 5766 5787 5781 5734 5734 5749 5770 5774 5769 5766 5763 5759 5756 5755 5755 5752 5748 5743 5737 5731 5725 5719 5714 5710 5705 5702 5697 5688 5679 5674 5671 5666 5661 5656 5658 5656 5654 5651 5648 5645 5643 5641 5638 5633
5797 5781 5761 5753 5753 5754 5796 5780 5758 5765 5774 5782 5770 5766 5764 5764 5759 5753 5748 5748 5746 5741 5738 5733 5728 5723 5718 5714 5710 5704 5701 5697 5689 5681 5674 5669 5666 5662 5658 5658 5655 5652 5648 5644 5641 5637 5633 5630 5623
5793 5785 5762 5739 5747 5752 5793 5769 5758 5780 5784 5787 5781 5772 5765 5761 5758 5753 5750 5749 5745 5741 5736 5733 5729 5726 5721 5714 5708 5704 5698 5693 5688 5681 5678 5674 5670 5666 5660 5655 5652 5648 5645 5642 5637 5633 5630 5625 5618
5780 5769 5795 5766 5785 5774 5793 5780 5791 5790 5784 5783 5777 5773 5767 5764 5762 5759 5759 5758 5752 5746 5741 5737 5733 5727 5722 5715 5711 5705 5700 5695 5689 5684 5680 5676 5672 5668 5662 5654 5650 5645 5641 5636 5632 5628 5623 5617 5615
5779 5787 5759 5771 5741 5739 5743 5756 5762 5773 5777 5780 5777 5775 5770 5770 5765 5759 5754 5752 5750 5749 5750 5742 5735 5728 5723 5719 5712 5705 5700 5695 5689 5684 5679 5674 5669 5664 5659 5654 5649 5644 5637 5632 5625 5621 5616 5609 5603
5770 5765 5768 5765 5755 5735 5739 5759 5789 5783 5785 5784 5788 5792 5773 5769 5765 5758 5753 5749 5748 5751 5750 5743 5734 5725 5720 5716 5709 5703 5698 5693 5685 5678 5672 5667 5663 5658 5655 5651 5645 5640 5634 5628 5621 5615 5610 5601 5596
5780 5764 5761 5739 5742 5753 5747 5750 5798 5792 5791 5788 5784 5790 5785 5769 5762 5761 5759 5755 5752 5747 5744 5736 5732 5727 5722 5713 5705 5700 5693 5686 5679 5672 5667 5663 5659 5654 5650 5646 5642 5636 5631 5625 5618 5609 5605 5599 5592